Location: Unspecified
(43.8044°N, 11.0278°E)
Time: 09:20:29
(UTC+02:00)

CZ-3 Stage 3 - Visible Passes

Search period start: 22 July 2014 00:00
Search period end: 01 August 2014 00:00
Orbit: 424 x 34828 km, 30.6° (Epoch: 21 July)

Date Brightness Start Highest point End Pass type
(mag) Time Alt. Az. Time Alt. Az. Time Alt. Az.
22 Jul 8.5 05:47:15 10° SSE 08:41:11 19° SSE 09:08:16 10° SE visible
24 Jul 6.2 12:01:23 10° SW 12:40:57 29° S 12:48:17 10° ESE visible
25 Jul 8.4 05:29:08 10° SSE 08:41:57 21° SSE 09:08:07 10° ESE visible
27 Jul 6.1 12:01:10 10° SW 12:39:42 30° S 12:46:45 10° ESE visible
28 Jul 8.4 05:11:40 10° SSE 08:42:29 22° SSE 09:07:40 10° ESE visible
30 Jul 6.1 12:01:02 10° SW 12:38:23 31° S 12:45:11 10° ESE visible
31 Jul 8.3 04:54:48 10° S 08:42:47 24° SSE 09:06:59 10° ESE visible
